Lid_Strength_Index
0 -0 0 0 0 0 0 2 2 4 4 1 2 -1 -1 -1 -1 -1 -0 1 2 3 3 3 2 2 2 2 2 2 3 3 3 3 3 2 1 0
0 0 0 -0 -0 0 0 1 2 2 4 1 1 0 -0 -0 -0 -1 -1 1 2 3 3 3 3 2 3 3 4 4 4 4 4 4 3 3 2 2
0 0 0 0 0 0 0 0 1 2 3 2 2 0 -0 -0 -1 -1 -1 -1 -0 2 2 3 3 3 3 4 5 5 5 5 4 4 3 3 1 1
0 0 1 0 0 0 1 1 1 0 2 3 1 1 0 -0 -1 -0 -1 -1 -1 1 3 3 3 4 5 5 6 6 7 7 6 6 4 3 2 2
0 0 1 0 1 1 1 1 1 1 1 2 2 0 0 -0 0 -0 -0 -1 -1 1 3 2 3 4 5 6 7 8 9 9 8 7 6 4 2 1
0 0 0 0 1 1 1 1 1 1 1 2 2 2 1 0 0 1 1 0 0 -0 1 2 3 3 4 5 7 8 9 9 9 8 7 4 4 4
0 0 -0 0 2 1 0 0 1 1 1 2 2 2 2 2 2 1 2 1 0 -0 0 -0 -1 -1 -0 3 6 8 8 8 9 8 5 6 6 6
1 0 -0 1 1 3 3 3 1 1 2 2 2 3 2 2 1 1 2 2 3 -1 1 1 -1 0 0 4 8 9 8 8 8 6 5 6 6 7
1 1 1 0 1 -0 2 3 3 4 3 1 2 2 2 1 1 1 1 2 2 1 0 2 -0 1 1 6 8 9 9 9 8 6 5 7 7 8
0 0 0 0 0 0 0 0 0 0 1 1 1 0 0 -0 -0 0 1 1 0 0 -0 3 0 1 5 5 8 8 9 9 7 6 5 7 8 8
0 0 0 0 3 5 1 1 1 1 2 5 4 4 5 5 3 1 2 2 3 2 0 1 1 1 0 5 7 8 9 9 7 5 6 7 8 8
1 0 4 1 5 7 1 1 2 1 1 0 0 2 4 2 5 2 1 2 2 3 0 2 2 1 2 2 6 7 6 8 7 6 6 8 9 3
1 1 1 6 8 9 7 1 1 1 1 1 1 1 0 -0 -0 1 0 1 2 2 0 1 2 1 2 2 4 7 6 5 3 1 5 7 8 6
1 1 1 7 9 9 8 6 7 6 1 1 1 1 1 1 0 -0 -1 -1 -1 0 -1 -0 1 2 2 3 3 4 6 4 3 2 2 4 6 7
1 2 5 8 9 9 9 8 8 4 2 2 2 2 1 0 -0 -0 -1 -1 -1 -1 1 0 1 1 1 2 3 4 4 4 3 4 2 3 3 3
4 2 3 4 6 4 5 7 5 3 3 2 2 2 1 1 1 0 1 0 1 1 3 5 4 2 1 3 5 4 5 4 4 4 2 2 2 3
4 2 1 2 2 2 2 2 2 3 4 3 3 3 2 1 1 1 1 1 2 2 2 5 6 4 3 3 4 4 4 5 5 4 4 3 3 3
4 2 2 2 2 2 2 2 1 2 1 2 2 3 3 3 2 1 1 2 2 2 2 4 6 6 6 5 4 4 5 5 5 5 4 4 3 3
2 2 3 2 2 2 2 2 2 1 1 2 2 3 2 2 2 2 2 2 2 2 2 3 5 5 5 5 4 7 4 5 6 6 5 4 4 3
2 2 3 2 2 2 2 2 1 1 1 1 2 2 2 2 2 2 2 2 2 2 2 2 3 3 3 4 3 4 10 5 5 6 5 4 4 5
4 2 2 2 2 2 2 2 1 1 1 2 2 2 2 2 2 2 2 6 5 2 3 3 1 5 3 4 4 5 6 10 6 4 4 4 5 4
2 2 2 1 1 1 2 1 2 2 2 2 1 1 2 2 2 2 2 3 4 2 2 2 3 3 4 3 3 4 5 5 9 9 7 5 4 4
2 2 2 2 1 1 1 1 1 1 2 2 2 2 2 3 3 3 3 3 3 3 3 2 2 3 3 3 3 3 4 5 6 6 4 7 7 7